CW8003 Weather Reports


time (UTC)temp
F
wind
direction
speed
knots
gust
knots
rain 1hr
in
rain 24hr
in
rain mn
in
humidity
%
barometer
mb
20260507150912 77 266 1.7 1.7 0.00 0.00 0.00 22 1008.9
20260507145913 76 266 1.7 1.7 0.00 0.00 0.00 24 1009.0
20260507144912 75 266 1.7 1.7 0.00 0.00 0.00 25 1009.1
20260507143912 74 266 1.7 1.7 0.00 0.00 0.00 27 1009.0
20260507142912 73 266 1.7 1.7 0.00 0.00 0.00 28 1009.0
20260507141912 72 266 1.7 1.7 0.00 0.00 0.00 30 1009.1
20260507140912 71 266 1.7 1.7 0.00 0.00 0.00 30 1009.1
20260507135932 70 266 1.7 1.7 0.00 0.00 0.00 30 1009.1
20260507134932 70 266 1.7 1.7 0.00 0.00 0.00 30 1009.0
20260507133912 68 266 1.7 1.7 0.00 0.00 0.00 29 1009.0
20260507132912 67 266 1.7 1.7 0.00 0.00 0.00 31 1008.9
20260507131932 65 266 1.7 1.7 0.00 0.00 0.00 33 1008.9
20260507130911 64 266 1.7 1.7 0.00 0.00 0.00 36 1008.9
20260507125911 64 266 1.7 1.7 0.00 0.00 0.00 36 1008.8
20260507124911 65 266 1.7 1.7 0.00 0.00 0.00 36 1008.9
20260507123911 64 266 1.7 1.7 0.00 0.00 0.00 36 1008.8
20260507122931 64 266 1.7 1.7 0.00 0.00 0.00 36 1008.8
20260507121911 64 266 1.7 1.7 0.00 0.00 0.00 37 1008.9
20260507120911 63 266 1.7 1.7 0.00 0.00 0.00 37 1009.0
20260507115911 63 266 1.7 1.7 0.00 0.00 0.00 38 1008.9
20260507114911 62 266 1.7 1.7 0.00 0.00 0.00 39 1009.0
20260507113911 60 266 1.7 1.7 0.00 0.00 0.00 40 1009.0
20260507112911 60 266 1.7 1.7 0.00 0.00 0.00 42 1009.2
20260507111911 59 266 1.7 1.7 0.00 0.00 0.00 42 1009.2
20260507110910 59 266 1.7 1.7 0.00 0.00 0.00 42 1009.3
20260507105910 59 266 1.7 1.7 0.00 0.00 0.00 42 1009.4
20260507104910 59 266 1.7 1.7 0.00 0.00 0.00 44 1009.5
20260507103910 58 266 1.7 1.7 0.00 0.00 0.00 44 1009.4
20260507102930 58 266 1.7 1.7 0.00 0.00 0.00 45 1009.4
20260507101911 57 266 1.7 1.7 0.00 0.00 0.00 45 1009.5
20260507100910 56 266 1.7 1.7 0.00 0.00 0.00 47 1009.5
20260507095910 56 266 1.7 1.7 0.00 0.00 0.00 47 1009.6
20260507094910 56 266 1.7 1.7 0.00 0.00 0.00 48 1009.6
20260507093930 56 266 1.7 1.7 0.00 0.00 0.00 48 1009.7
20260507092929 56 266 1.7 1.7 0.00 0.00 0.00 47 1009.8
20260507091909 56 266 1.7 1.7 0.00 0.00 0.00 48 1009.9
20260507090911 56 266 1.7 1.7 0.00 0.00 0.00 48 1010.0
20260507085909 56 266 1.7 1.7 0.00 0.00 0.00 49 1010.1
20260507084909 55 266 1.7 1.7 0.00 0.00 0.00 49 1010.3
20260507083910 56 266 1.7 1.7 0.00 0.00 0.00 49 1010.4
20260507082909 56 266 1.7 1.7 0.00 0.00 0.00 48 1010.6
20260507081909 56 266 1.7 1.7 0.00 0.00 0.00 46 1010.6
20260507080910 57 266 1.7 1.7 0.00 0.00 0.00 46 1010.7
20260507075908 57 266 1.7 1.7 0.00 0.00 0.00 46 1010.8
20260507074929 57 266 1.7 1.7 0.00 0.00 0.00 46 1010.8
20260507073929 57 266 1.7 1.7 0.00 0.00 0.00 45 1010.8
20260507072928 58 266 1.7 1.7 0.00 0.00 0.00 46 1010.8
20260507071928 58 266 1.7 1.7 0.00 0.00 0.00 44 1010.8
20260507070908 59 266 1.7 1.7 0.00 0.00 0.00 43 1010.7
20260507065959 59 266 1.7 1.7 0.00 0.00 0.00 43 1010.8
20260507064908 59 266 1.7 1.7 0.00 0.00 0.00 43 1010.8
20260507063908 60 266 1.7 1.7 0.00 0.00 0.00 42 1010.8
20260507062908 60 266 1.7 1.7 0.00 0.00 0.00 41 1010.8
20260507061908 60 266 1.7 1.7 0.00 0.00 0.00 41 1010.7
20260507060908 61 266 1.7 1.7 0.00 0.00 0.00 41 1010.7
20260507055928 61 266 1.7 1.7 0.00 0.00 0.00 40 1010.8
20260507054907 61 266 1.7 1.7 0.00 0.00 0.00 40 1010.8
20260507053908 62 266 1.7 1.7 0.00 0.00 0.00 39 1010.9
20260507052907 62 266 1.7 1.7 0.00 0.00 0.00 38 1010.8
20260507051907 63 266 1.7 1.7 0.00 0.00 0.00 38 1010.8
20260507050907 63 266 1.7 1.7 0.00 0.00 0.00 37 1010.7
20260507045907 64 266 1.7 1.7 0.00 0.00 0.00 37 1010.7
20260507044907 64 266 1.7 1.7 0.00 0.00 0.00 36 1010.6
20260507043927 65 266 1.7 1.7 0.00 0.00 0.00 35 1010.5
20260507042908 66 266 1.7 1.7 0.00 0.00 0.00 34 1010.4
20260507041907 66 266 1.7 1.7 0.00 0.00 0.00 34 1010.3
20260507040907 66 266 1.7 1.7 0.00 0.00 0.00 34 1010.2
20260507035906 66 266 1.7 1.7 0.00 0.00 0.00 33 1010.1
20260507034906 66 266 1.7 1.7 0.00 0.00 0.00 33 1010.0
20260507033906 67 266 1.7 1.7 0.00 0.00 0.00 33 1009.9
20260507032906 68 266 1.7 1.7 0.00 0.00 0.00 32 1009.9
20260507031906 69 266 1.7 1.7 0.00 0.00 0.00 31 1009.7
20260507030926 70 266 1.7 1.7 0.00 0.00 0.00 30 1009.5
20260507025906 71 266 1.7 1.7 0.00 0.00 0.00 30 1009.4
20260507024906 72 266 1.7 1.7 0.00 0.00 0.00 28 1009.2
20260507023906 72 266 1.7 1.7 0.00 0.00 0.00 28 1009.1
20260507022906 73 266 1.7 1.7 0.00 0.00 0.00 27 1009.1
20260507021926 74 266 1.7 1.7 0.00 0.00 0.00 27 1008.9
20260507020905 74 266 1.7 1.7 0.00 0.00 0.00 27 1008.9
20260507015905 75 266 1.7 1.7 0.00 0.00 0.00 27 1008.7
20260507014926 75 265 0.0 0.9 0.00 0.00 0.00 26 1008.7
20260507013906 76 266 0.0 0.9 0.00 0.00 0.00 26 1008.7
20260507012906 77 266 0.0 1.7 0.00 0.00 0.00 25 1008.6
20260507011905 77 265 0.9 2.6 0.00 0.00 0.00 25 1008.6
20260507010905 78 266 0.0 1.7 0.00 0.00 0.00 25 1008.6
20260507005905 78 267 0.9 1.7 0.00 0.00 0.00 25 1008.6
20260507004905 78 267 1.7 3.5 0.00 0.00 0.00 25 1008.5
20260507003905 79 266 2.6 2.6 0.00 0.00 0.00 24 1008.4
20260507002904 79 266 2.6 3.5 0.00 0.00 0.00 24 1008.4
20260507001905 80 267 0.0 1.7 0.00 0.00 0.00 25 1008.5
20260507000904 80 268 1.7 2.6 0.00 0.00 0.00 25 1008.4
20260506235924 79 268 3.5 6.1 0.00 0.00 0.00 25 1008.5
20260506234904 79 264 0.0 1.7 0.00 0.00 0.00 25 1008.5
20260506233944 80 264 7.8 9.6 0.00 0.00 0.00 25 1008.5
20260506232904 80 259 0.9 5.2 0.00 0.00 0.00 25 1008.5
20260506231904 80 262 0.0 1.7 0.00 0.00 0.00 25 1008.7
20260506230904 80 262 1.7 7.0 0.00 0.00 0.00 25 1008.7
20260506225904 80 260 2.6 9.6 0.00 0.00 0.00 25 1008.7
20260506224904 80 265 7.0 7.0 0.00 0.00 0.00 25 1008.7
20260506223904 80 264 0.0 0.9 0.00 0.00 0.00 26 1008.8
20260506222903 79 261 4.3 4.3 0.00 0.00 0.00 26 1008.9
20260506221903 79 260 0.0 2.6 0.00 0.00 0.00 26 1009.1
20260506220903 80 263 5.2 7.0 0.00 0.00 0.00 26 1009.2
20260506215923 80 260 5.2 8.7 0.00 0.00 0.00 26 1009.3
20260506214903 80 261 0.0 0.9 0.00 0.00 0.00 26 1009.5
20260506213905 79 259 7.0 7.8 0.00 0.00 0.00 26 1009.6
20260506212923 79 261 2.6 7.0 0.00 0.00 0.00 26 1009.7
20260506211903 80 259 2.6 4.3 0.00 0.00 0.00 26 1009.9
20260506210903 80 259 3.5 4.3 0.00 0.00 0.00 26 1010.0
20260506205903 80 256 0.0 0.9 0.00 0.00 0.00 25 1010.2
20260506204922 80 256 0.0 2.6 0.00 0.00 0.00 26 1010.3
20260506203923 79 250 2.6 7.8 0.00 0.00 0.00 26 1010.3
20260506202902 78 257 0.0 0.9 0.00 0.00 0.00 27 1010.4
20260506201902 78 257 1.7 5.2 0.00 0.00 0.00 26 1010.5
20260506200902 78 257 0.0 1.7 0.00 0.00 0.00 27 1010.6
20260506195902 77 247 5.2 8.7 0.00 0.00 0.00 27 1010.7
20260506194902 77 244 8.7 8.7 0.00 0.00 0.00 27 1010.8
20260506193902 78 231 1.7 1.7 0.00 0.00 0.00 27 1010.9
20260506192902 77 231 0.0 0.0 0.00 0.00 0.00 27 1011.0
20260506191902 76 261 0.9 0.9 0.00 0.00 0.00 28 1011.2
20260506190901 76 261 0.9 4.3 0.00 0.00 0.00 28 1011.4
20260506185903 76 259 0.0 0.0 0.00 0.00 0.00 27 1011.4
20260506184901 76 261 0.0 1.7 0.00 0.00 0.00 27 1011.5
20260506183901 74 269 1.7 2.6 0.00 0.00 0.00 28 1011.6
20260506182901 74 265 0.9 7.0 0.00 0.00 0.00 28 1011.7
20260506181901 73 257 0.0 2.6 0.00 0.00 0.00 29 1011.8
20260506180901 73 259 2.6 3.5 0.00 0.00 0.00 29 1012.0
20260506175901 72 263 4.3 7.0 0.00 0.00 0.00 28 1012.0
20260506174901 73 259 7.8 10.4 0.00 0.00 0.00 28 1012.0
20260506173921 72 228 0.0 4.3 0.00 0.00 0.00 29 1012.1
20260506172901 72 229 2.6 9.6 0.00 0.00 0.00 30 1012.0
20260506171900 72 232 7.0 7.8 0.00 0.00 0.00 29 1011.9
20260506170900 72 256 2.6 3.5 0.00 0.00 0.00 31 1012.0
20260506165901 71 256 2.6 7.0 0.00 0.00 0.00 33 1012.0
20260506164900 70 273 3.5 4.3 0.00 0.00 0.00 33 1012.1
20260506163900 70 270 0.0 0.9 0.00 0.00 0.00 34 1012.0
20260506162900 69 276 0.0 0.0 0.00 0.00 0.00 34 1012.1
20260506161900 69 275 2.6 3.5 0.00 0.00 0.00 35 1012.1
20260506160900 68 279 1.7 1.7 0.00 0.00 0.00 36 1012.1
20260506155900 68 279 0.0 0.9 0.00 0.00 0.00 37 1012.2
20260506154900 68 279 1.7 2.6 0.00 0.00 0.00 37 1012.2
20260506153900 67 263 7.0 7.0 0.00 0.00 0.00 38 1012.2
20260506152859 67 263 7.0 7.0 0.00 0.00 0.00 38 1012.1
20260506151859 67 263 7.0 7.0 0.00 0.00 0.00 40 1012.1